When you browse on this site, cookies collect data to enhance your experience and personalize the content and advertising you see.
Visit our Privacy Policy to learn more. By continuing to use the site, you agree to this use of cookies and data.
  • Em Portugal
  • Lista de países
  • Para 7 dias
  • Temperatura da água
  • Mapas de satélite
  • Mapa do tempo
  • Widgets de tempo
  • user-avatar
    Iniciar Sessão

    Previsão horária em Korboniec

    Hoje, 27 Março, Quarta-feira

    Tempo Temperatura Precipitação Vento Pressão Humidade
    00:00 -3°C° 0 mm 4 m/s 754 mmHg 85%
    01:00 -3°C° 0 mm 4 m/s 755 mmHg 88%
    02:00 -3°C° 0 mm 4 m/s 755 mmHg 90%
    03:00 -4°C° 0 mm 3 m/s 755 mmHg 91%
    04:00 -4°C° 0 mm 3 m/s 756 mmHg 92%
    05:00 -2°C° 0 mm 3 m/s 756 mmHg 88%
    06:00 -1°C° 0 mm 3 m/s 756 mmHg 83%
    07:00 -1°C° 0 mm 3 m/s 757 mmHg 78%
    08:00 0°C° 0 mm 4 m/s 757 mmHg 68%
    09:00 +3°C° 0 mm 4 m/s 757 mmHg 59%
    10:00 +5°C° 0 mm 4 m/s 757 mmHg 49%
    11:00 +5°C° 0 mm 5 m/s 757 mmHg 48%
    12:00 +6°C° 0 mm 5 m/s 757 mmHg 48%
    13:00 +7°C° 0 mm 5 m/s 757 mmHg 47%
    14:00 +7°C° 0 mm 5 m/s 757 mmHg 50%
    15:00 +7°C° 0 mm 5 m/s 757 mmHg 54%
    16:00 +7°C° 0 mm 5 m/s 757 mmHg 57%
    17:00 +6°C° 0.1 mm 4 m/s 757 mmHg 67%
    18:00 +5°C° 0.1 mm 3 m/s 757 mmHg 77%
    19:00 +4°C° 0.1 mm 3 m/s 757 mmHg 87%
    20:00 +4°C° 0.2 mm 3 m/s 757 mmHg 90%
    21:00 +4°C° 0.2 mm 3 m/s 757 mmHg 93%
    22:00 +4°C° 0.2 mm 3 m/s 757 mmHg 96%
    23:00 +4°C° 0 mm 3 m/s 757 mmHg 96%

    Amanhã, 28 Março, Quinta-feira

    Tempo Temperatura Precipitação Vento Pressão Humidade
    00:00 +3°C° 0 mm 3 m/s 757 mmHg 96%
    01:00 +4°C° 0 mm 2 m/s 757 mmHg 97%
    02:00 +4°C° 0 mm 2 m/s 757 mmHg 97%
    03:00 +4°C° 0 mm 2 m/s 757 mmHg 97%
    04:00 +4°C° 0 mm 2 m/s 758 mmHg 97%
    05:00 +4°C° 0 mm 2 m/s 758 mmHg 96%
    06:00 +5°C° 0 mm 2 m/s 758 mmHg 94%
    07:00 +5°C° 0 mm 2 m/s 759 mmHg 93%
    08:00 +6°C° 0 mm 2 m/s 759 mmHg 89%
    09:00 +6°C° 0 mm 2 m/s 760 mmHg 85%
    10:00 +7°C° 0 mm 2 m/s 760 mmHg 82%
    11:00 +8°C° 0 mm 2 m/s 760 mmHg 77%
    12:00 +8°C° 0 mm 2 m/s 760 mmHg 73%
    13:00 +9°C° 0 mm 2 m/s 761 mmHg 68%
    14:00 +9°C° 0 mm 2 m/s 761 mmHg 68%
    15:00 +9°C° 0 mm 2 m/s 761 mmHg 68%
    16:00 +9°C° 0 mm 2 m/s 761 mmHg 67%
    17:00 +7°C° 0 mm 2 m/s 761 mmHg 73%
    18:00 +7°C° 0 mm 1 m/s 761 mmHg 79%
    19:00 +6°C° 0 mm 1 m/s 761 mmHg 84%
    20:00 +6°C° 0 mm 1 m/s 761 mmHg 85%
    21:00 +5°C° 0 mm 1 m/s 762 mmHg 86%
    22:00 +5°C° 0 mm 1 m/s 762 mmHg 87%
    23:00 +5°C° 0 mm 1 m/s 762 mmHg 88%

    Depois de amanhã, 29 Março, Sexta-feira

    Tempo Temperatura Precipitação Vento Pressão Humidade
    00:00 +3°C° 0 mm 2 m/s 762 mmHg 89%
    01:00 +3°C° 0 mm 2 m/s 762 mmHg 91%
    02:00 +2°C° 0 mm 3 m/s 762 mmHg 92%
    03:00 +2°C° 0 mm 3 m/s 762 mmHg 93%
    04:00 +2°C° 0 mm 3 m/s 761 mmHg 94%
    05:00 +3°C° 0 mm 3 m/s 761 mmHg 93%
    06:00 +4°C° 0 mm 4 m/s 761 mmHg 92%
    07:00 +4°C° 0 mm 4 m/s 761 mmHg 91%
    08:00 +5°C° 0 mm 4 m/s 761 mmHg 88%
    09:00 +6°C° 0 mm 4 m/s 761 mmHg 86%
    10:00 +8°C° 0 mm 4 m/s 761 mmHg 84%
    11:00 +10°C° 0 mm 4 m/s 761 mmHg 80%
    12:00 +11°C° 0 mm 4 m/s 760 mmHg 77%
    13:00 +12°C° 0 mm 4 m/s 760 mmHg 74%
    14:00 +13°C° 0 mm 4 m/s 760 mmHg 71%
    15:00 +13°C° 0 mm 4 m/s 759 mmHg 69%
    16:00 +14°C° 0 mm 4 m/s 759 mmHg 67%
    17:00 +12°C° 0 mm 4 m/s 759 mmHg 73%
    18:00 +11°C° 0 mm 4 m/s 759 mmHg 80%
    19:00 +9°C° 0 mm 3 m/s 759 mmHg 86%
    20:00 +9°C° 0 mm 3 m/s 759 mmHg 88%
    21:00 +8°C° 0 mm 4 m/s 759 mmHg 90%
    22:00 +7°C° 0 mm 4 m/s 759 mmHg 91%
    23:00 +8°C° 0 mm 3 m/s 758 mmHg 92%

    30 Março, Sábado

    Tempo Temperatura Precipitação Vento Pressão Humidade
    00:00 +7°C° 0 mm 3 m/s 758 mmHg 93%
    01:00 +7°C° 0 mm 3 m/s 758 mmHg 94%
    02:00 +7°C° 0 mm 3 m/s 758 mmHg 94%
    03:00 +5°C° 0 mm 3 m/s 758 mmHg 95%
    04:00 +5°C° 0 mm 3 m/s 758 mmHg 96%
    05:00 +7°C° 0 mm 3 m/s 758 mmHg 94%
    06:00 +6°C° 0 mm 4 m/s 758 mmHg 91%
    07:00 +7°C° 0 mm 4 m/s 758 mmHg 89%
    08:00 +10°C° 0 mm 4 m/s 757 mmHg 82%
    09:00 +10°C° 0 mm 5 m/s 757 mmHg 76%
    10:00 +13°C° 0 mm 5 m/s 757 mmHg 69%
    11:00 +13°C° 0 mm 5 m/s 757 mmHg 66%
    12:00 +14°C° 0 mm 5 m/s 756 mmHg 63%
    13:00 +15°C° 0 mm 5 m/s 756 mmHg 60%
    14:00 +15°C° 0 mm 5 m/s 755 mmHg 61%
    15:00 +14°C° 0 mm 5 m/s 755 mmHg 62%
    16:00 +14°C° 0 mm 4 m/s 755 mmHg 62%
    17:00 +13°C° 0 mm 4 m/s 754 mmHg 69%
    18:00 +12°C° 0 mm 3 m/s 754 mmHg 75%
    19:00 +10°C° 0 mm 2 m/s 754 mmHg 81%
    20:00 +10°C° 0 mm 2 m/s 753 mmHg 83%
    21:00 +9°C° 0 mm 2 m/s 753 mmHg 85%
    22:00 +9°C° 0 mm 2 m/s 753 mmHg 87%
    23:00 +8°C° 0 mm 3 m/s 752 mmHg 87%

    31 Março, Domingo

    Tempo Temperatura Precipitação Vento Pressão Humidade
    00:00 +8°C° 0 mm 3 m/s 752 mmHg 87%
    01:00 +7°C° 0 mm 3 m/s 751 mmHg 87%
    02:00 +7°C° 0 mm 3 m/s 751 mmHg 86%
    03:00 +7°C° 0 mm 3 m/s 750 mmHg 85%
    04:00 +5°C° 0 mm 3 m/s 750 mmHg 84%
    05:00 +6°C° 0 mm 4 m/s 749 mmHg 80%
    06:00 +7°C° 0 mm 4 m/s 749 mmHg 77%
    07:00 +7°C° 0 mm 4 m/s 749 mmHg 74%
    08:00 +9°C° 0 mm 5 m/s 749 mmHg 67%
    09:00 +11°C° 0 mm 6 m/s 749 mmHg 61%
    10:00 +14°C° 0 mm 7 m/s 749 mmHg 55%
    11:00 +14°C° 0.1 mm 7 m/s 748 mmHg 55%
    12:00 +13°C° 0.1 mm 8 m/s 748 mmHg 56%
    13:00 +15°C° 0.1 mm 8 m/s 748 mmHg 56%
    14:00 +12°C° 0.1 mm 8 m/s 748 mmHg 60%
    15:00 +11°C° 0.1 mm 7 m/s 749 mmHg 63%
    16:00 +10°C° 0.1 mm 7 m/s 749 mmHg 66%
    17:00 +8°C° 0 mm 7 m/s 750 mmHg 60%
    18:00 +7°C° 0 mm 6 m/s 750 mmHg 54%
    19:00 +4°C° 0 mm 6 m/s 751 mmHg 48%
    20:00 +3°C° 0 mm 6 m/s 752 mmHg 54%
    21:00 +2°C° 0 mm 5 m/s 752 mmHg 60%
    22:00 +1°C° 0 mm 5 m/s 753 mmHg 66%
    23:00 0°C° 0 mm 4 m/s 754 mmHg 70%

    1 Abril, Segunda-feira

    Tempo Temperatura Precipitação Vento Pressão Humidade
    00:00 0°C° 0 mm 4 m/s 754 mmHg 75%
    01:00 0°C° 0 mm 3 m/s 755 mmHg 79%
    02:00 0°C° 0 mm 3 m/s 755 mmHg 80%
    03:00 -1°C° 0 mm 3 m/s 756 mmHg 81%
    04:00 -1°C° 0 mm 3 m/s 756 mmHg 82%
    05:00 -1°C° 0 mm 3 m/s 757 mmHg 76%
    06:00 0°C° 0 mm 3 m/s 757 mmHg 70%
    07:00 0°C° 0 mm 4 m/s 758 mmHg 65%
    08:00 +1°C° 0 mm 4 m/s 758 mmHg 57%
    09:00 +3°C° 0 mm 4 m/s 758 mmHg 49%
    10:00 +5°C° 0 mm 4 m/s 759 mmHg 41%
    11:00 +5°C° 0 mm 4 m/s 758 mmHg 40%
    12:00 +6°C° 0 mm 4 m/s 758 mmHg 39%
    13:00 +6°C° 0 mm 4 m/s 758 mmHg 37%
    14:00 +6°C° 0 mm 4 m/s 758 mmHg 38%
    15:00 +6°C° 0 mm 4 m/s 757 mmHg 40%
    16:00 +6°C° 0 mm 4 m/s 757 mmHg 41%
    17:00 +4°C° 0 mm 3 m/s 757 mmHg 45%
    18:00 +3°C° 0 mm 3 m/s 757 mmHg 49%
    19:00 +2°C° 0 mm 2 m/s 757 mmHg 53%
    20:00 +2°C° 0 mm 2 m/s 757 mmHg 54%
    21:00 +1°C° 0 mm 2 m/s 757 mmHg 56%
    22:00 -1°C° 0 mm 2 m/s 757 mmHg 57%
    23:00 -1°C° 0 mm 2 m/s 756 mmHg 59%
    Mostrar mais